Location: Ellerstadt
(49.4644°N, 8.2615°E)
Time: 11:49:38
(UTC+00:00)

Cosmos 1821 Rocket - Pass Details

Date: 03 March 2021
Orbit: 945 x 1005 km, 82.9° (Epoch: 12 April)

Event Time Altitude Azimuth Distance (km) Brightness Sun altitude
Exits shadow 20:42:01 63° 313° (NW) 1,074 4.3 -33.3°
Drops below altitude 10° 20:47:37 10° 5° (N) 2,703 6.6 -34.0°
Sets 20:50:09 0° 8° (N) 3,646 7.3 -34.4°
